EHI
11 9 9 10 9 7 5 5 4 3 1 0 0 0 0 1 2 3 2 1 0 0 0 0 0 0 0 0 0 0 0 0 0 0 0 0 0 0 0 0 0 0 0
11 9 9 9 7 5 5 5 4 3 2 1 1 1 1 2 3 3 2 0 0 0 0 0 0 0 0 0 0 0 0 0 0 0 0 0 0 0 0 0 0 0 0
10 8 8 8 5 3 4 4 4 3 3 3 3 3 3 3 4 3 2 1 0 0 0 0 0 0 0 0 0 0 0 0 0 0 0 0 0 0 0 0 0 0 0
7 7 7 6 4 3 3 3 3 3 3 4 5 5 4 3 2 2 1 1 1 1 0 0 0 0 0 0 1 1 1 1 1 1 1 1 1 0 0 0 0 0 0
6 6 6 6 4 3 4 4 3 3 4 5 5 5 4 3 1 0 1 1 0 1 1 0 0 0 0 0 1 1 1 2 3 3 2 2 1 0 0 0 0 0 0
6 6 6 5 4 4 4 4 4 3 3 4 4 4 4 3 1 0 0 0 0 0 0 0 0 0 0 0 0 0 1 3 4 4 3 1 0 0 0 0 0 0 0
4 4 4 4 3 3 4 4 3 2 1 2 3 5 6 4 1 0 0 0 0 0 0 0 0 0 0 0 0 0 1 2 4 4 3 1 0 0 0 0 0 0 0
4 4 3 3 3 3 3 3 3 1 0 0 2 5 7 5 2 0 0 0 0 0 0 0 0 0 0 0 0 0 0 1 2 3 2 1 0 0 0 0 0 0 0
6 5 4 3 4 3 3 3 3 1 0 0 1 3 6 5 3 1 0 0 0 0 0 0 0 0 0 0 1 0 0 0 1 2 1 0 0 0 0 0 0 0 0
7 6 4 5 5 4 3 3 3 2 0 0 0 2 4 5 4 2 0 0 0 0 0 0 0 0 0 1 1 0 0 0 0 0 0 0 0 0 0 0 0 0 0
6 5 4 7 8 6 4 4 3 2 1 1 1 1 3 4 3 1 0 1 1 1 1 1 1 1 1 1 1 0 0 0 0 0 0 0 0 0 0 0 0 0 0
6 5 5 7 9 7 6 6 5 3 2 2 2 2 3 4 3 2 1 2 2 3 4 5 3 2 1 0 0 0 0 0 0 0 0 0 0 0 0 0 0 0 0
8 6 6 8 8 6 6 6 6 5 4 3 3 3 3 4 4 4 3 3 3 4 6 7 5 3 1 1 1 0 0 0 0 0 0 0 0 0 0 0 0 0 0
7 7 8 8 7 5 4 6 6 6 5 4 3 3 4 4 4 4 3 3 3 4 5 5 5 3 3 3 2 1 1 0 0 0 0 0 0 0 0 0 0 0 0
5 6 7 8 7 6 5 5 6 7 6 4 2 3 4 5 4 3 3 3 3 3 4 4 4 3 3 4 4 2 1 0 0 0 0 0 0 0 0 0 0 0 0
3 3 4 6 6 6 5 5 5 5 6 5 3 2 3 3 3 3 3 3 4 4 3 3 3 3 3 3 3 2 1 0 0 0 0 0 0 0 0 0 0 0 0
3 2 2 3 4 4 5 5 4 4 5 5 3 1 1 1 2 3 3 4 5 5 4 3 3 3 4 3 3 3 1 1 1 0 0 0 0 0 0 0 0 0 0
3 3 2 1 1 2 4 4 3 3 4 4 2 0 0 0 1 2 3 3 4 4 3 3 3 4 4 4 4 4 3 3 2 1 0 0 0 0 0 0 0 0 0
4 4 4 2 1 2 3 3 2 2 2 2 1 0 0 0 1 2 2 2 3 3 4 4 4 5 5 5 4 4 4 4 3 2 1 0 0 0 0 0 0 0 0
5 5 5 4 3 3 3 3 2 3 2 1 0 0 0 0 1 2 2 2 2 3 4 4 4 5 6 6 5 4 3 4 3 3 2 1 1 0 0 0 0 0 0
7 7 7 6 6 4 3 3 3 3 3 2 0 0 0 0 1 1 1 2 2 3 3 3 3 5 6 7 6 4 3 3 3 3 3 3 2 1 1 1 0 0 0
9 9 8 8 8 6 3 2 2 3 2 1 0 0 0 0 0 0 0 1 1 2 3 3 3 4 5 6 6 5 4 3 3 3 3 3 3 3 3 2 1 0 0
10 10 9 9 9 7 2 0 1 2 1 0 0 0 0 0 0 0 0 0 0 0 1 2 2 3 3 4 5 5 5 4 4 3 3 3 3 4 3 2 1 0 0
9 9 9 9 8 6 2 0 0 1 1 1 2 1 0 0 0 0 0 0 0 0 0 0 1 1 1 2 3 5 5 5 4 3 3 3 3 2 2 2 1 0 0
7 7 6 6 5 3 1 0 0 0 1 2 3 2 1 0 0 0 0 0 0 0 0 0 0 0 0 1 1 3 3 3 3 2 3 3 1 1 1 1 1 0 0
5 5 4 4 4 2 1 0 0 0 1 3 3 2 1 0 0 0 0 0 1 1 1 0 0 0 0 0 0 1 1 1 1 2 3 2 1 0 0 1 0 0 0
Wind_Speed
4 4 3 3 3 3 4 3 3 3 3 3 3 2 2 2 2 2 4 7 5 4 2 2 2 2 2 3 3 3 4 5 5 6 6 6 6 6 6 6 5 5 5
4 4 4 4 3 3 2 2 3 3 2 2 2 2 2 2 2 2 2 6 6 4 3 2 1 1 2 2 2 3 4 4 5 5 5 6 6 5 5 6 5 5 5
5 4 4 4 3 3 3 2 3 3 3 3 2 2 2 1 2 1 1 2 4 6 5 2 2 1 1 2 2 3 3 5 5 5 6 6 6 6 5 5 6 5 5
5 4 4 4 3 3 3 3 3 3 2 2 2 2 2 2 2 2 2 2 1 2 5 5 3 3 3 3 3 4 4 4 5 5 6 6 6 7 7 6 6 5 5
5 4 3 3 4 3 3 3 3 2 2 2 3 3 2 2 3 3 2 2 2 2 2 6 6 5 4 4 4 4 5 5 5 5 6 6 6 7 7 6 6 5 4
5 4 4 4 4 3 3 2 3 2 2 2 2 2 2 2 3 2 3 2 2 3 3 2 4 6 6 5 4 4 5 5 5 5 6 6 6 6 7 7 6 6 5
5 4 4 5 4 4 3 4 3 4 3 2 3 3 3 4 3 3 3 2 2 3 2 3 3 2 4 7 6 5 4 5 5 5 6 5 5 6 7 8 7 7 7
5 5 4 4 4 3 4 4 3 2 2 3 3 3 3 4 4 4 3 4 3 3 3 3 2 3 3 2 4 5 5 5 6 6 6 6 6 6 6 8 8 8 8
6 4 5 4 4 4 4 4 4 4 3 3 3 3 3 2 1 4 4 3 3 3 3 3 4 3 4 3 3 5 5 5 6 6 6 6 6 6 6 7 8 9 9
6 5 5 5 4 3 3 5 4 3 4 4 3 3 3 3 3 2 4 4 4 4 4 4 4 4 4 4 3 2 4 5 6 7 7 7 7 8 8 8 8 9 10
5 5 5 4 4 4 3 3 3 4 4 4 3 3 3 3 5 4 3 2 3 3 3 4 3 4 4 4 4 2 3 5 5 6 6 7 8 8 8 8 9 9 10
5 5 5 4 4 3 4 4 4 5 4 4 4 4 4 3 3 3 3 4 3 2 3 3 4 3 3 3 3 1 2 4 6 6 6 7 8 8 9 9 10 10 10
4 5 5 4 4 4 4 4 4 5 5 5 6 4 4 4 3 3 3 3 4 3 3 4 3 3 3 3 3 3 4 5 5 6 7 7 8 9 9 9 10 10 10
4 5 5 5 5 5 5 5 5 5 4 5 6 5 5 4 3 3 4 4 5 4 3 3 3 3 3 3 1 5 4 5 5 5 6 7 7 8 8 9 9 9 9
4 5 5 5 5 5 5 5 5 5 5 6 6 6 5 3 4 4 4 5 5 6 5 3 3 3 3 3 1 4 5 4 6 6 6 7 8 8 8 8 8 8 8
4 5 6 6 6 6 6 6 6 5 6 5 4 5 5 4 4 4 5 5 5 6 6 4 3 2 2 3 2 4 4 5 8 8 7 7 7 8 8 8 8 8 8
5 6 6 6 6 6 6 6 6 6 7 6 6 6 6 6 5 5 5 5 5 5 6 4 3 2 2 3 3 4 4 5 4 7 6 6 7 8 8 8 8 8 8
6 6 6 6 6 7 7 7 8 7 7 7 7 7 7 5 6 6 5 6 5 5 5 6 4 3 3 3 3 4 4 4 4 5 7 7 7 8 8 8 8 8 8
5 5 6 6 6 6 6 7 7 7 7 7 7 7 8 7 7 6 6 6 5 5 5 5 5 3 3 3 4 4 4 4 5 3 7 8 8 8 7 7 8 8 8
5 5 5 6 6 6 6 6 6 6 6 6 7 7 7 8 8 7 6 6 6 5 5 5 5 4 3 3 4 3 3 3 4 4 3 5 7 9 9 9 8 8 8
5 5 5 6 5 5 5 5 6 6 6 6 6 6 7 6 6 6 6 5 5 5 5 5 4 4 3 3 3 3 4 4 3 3 3 4 4 5 6 9 9 7 7
4 4 5 5 5 4 2 2 4 5 6 6 6 6 6 7 6 7 7 7 7 7 7 6 5 4 4 5 3 4 4 4 4 2 4 5 4 4 4 4 5 6 7
4 4 4 5 4 3 3 3 5 6 6 6 6 6 6 5 6 6 6 8 9 9 9 8 7 6 6 5 5 6 4 5 5 3 4 6 4 5 4 3 7 8 8
3 4 4 4 4 4 5 5 5 7 7 7 7 7 7 7 6 6 6 6 7 7 8 8 7 7 6 5 5 6 5 6 6 5 4 6 5 5 5 4 8 9 9
4 4 4 5 5 4 5 6 7 6 6 7 7 7 7 7 4 4 7 7 7 6 6 7 7 6 5 5 5 5 5 6 5 4 4 5 5 5 5 5 6 11 11
3 4 4 4 5 5 5 7 8 6 6 6 6 6 6 7 5 6 7 7 7 7 6 5 6 7 8 9 9 8 7 6 6 5 2 4 5 5 5 4 4 5 7
Wind_Direction
177 165 160 157 163 153 161 174 159 151 168 177 186 181 176 162 150 138 125 127 130 130 133 135 144 155 166 163 164 173 174 173 171 172 172 171 171 173 173 169 167 173 177
167 166 165 161 158 162 155 168 155 164 177 174 173 164 176 149 142 159 145 142 146 146 149 161 178 189 196 181 181 195 198 192 189 188 188 185 181 178 179 178 172 173 177
164 170 164 170 161 157 155 170 168 179 175 175 168 168 172 167 154 167 199 189 163 164 171 179 192 220 237 229 213 212 211 203 202 201 200 198 196 193 189 185 182 181 184
166 175 172 171 162 169 171 173 194 188 179 186 177 186 173 177 188 200 214 216 211 180 170 173 197 219 238 238 231 221 217 214 210 207 204 203 202 199 194 191 190 190 193
169 178 171 157 176 178 180 192 171 196 185 186 190 190 201 201 201 203 219 234 222 233 210 164 187 208 224 237 242 234 225 222 219 214 209 211 208 203 197 194 193 193 195
171 176 166 165 180 174 175 180 171 189 207 206 220 195 218 216 219 206 229 220 226 233 236 223 203 188 196 217 231 237 229 223 219 219 214 213 209 200 196 198 200 202 203
165 176 165 165 187 178 181 186 191 183 196 197 220 212 212 214 214 223 235 241 217 227 236 237 251 249 191 195 206 222 231 232 225 218 215 210 205 203 206 209 209 209 208
171 178 176 180 179 176 185 190 197 201 192 205 235 229 217 198 202 211 219 224 234 235 235 233 254 253 267 231 160 193 226 241 235 227 221 217 216 212 214 218 217 213 209
181 189 185 193 185 197 183 193 194 202 206 211 239 260 259 253 201 189 216 227 230 241 248 244 240 243 250 251 231 187 207 235 238 234 228 224 221 220 222 225 225 222 220
184 186 190 196 200 203 186 201 193 207 218 220 211 247 286 322 280 232 204 206 224 237 247 258 253 232 240 244 226 219 209 226 238 237 233 231 230 229 230 231 230 229 229
183 184 191 195 200 204 194 210 197 221 225 236 234 229 233 235 249 269 265 244 229 229 237 247 259 255 242 244 245 193 198 226 233 239 237 234 237 235 233 233 232 233 236
179 180 191 194 203 202 193 203 209 213 229 237 248 246 243 248 247 254 262 267 271 259 252 252 247 244 243 245 245 150 203 224 224 231 235 235 235 234 232 234 236 235 238
182 183 194 196 204 204 203 205 210 226 224 227 236 244 251 257 262 262 263 273 282 275 252 244 240 247 253 250 230 184 206 206 218 225 228 230 232 234 234 235 237 238 239
184 178 193 198 204 205 208 207 222 219 224 231 238 246 252 251 253 257 261 271 273 269 251 255 255 249 261 263 236 218 221 193 213 224 227 229 232 235 236 236 236 237 238
184 184 194 200 204 207 213 215 228 226 223 226 230 230 245 251 250 253 256 260 272 282 278 258 260 250 264 271 258 257 259 200 213 223 228 230 232 233 235 234 234 234 234
193 198 203 206 209 211 213 220 226 219 225 231 239 248 254 256 260 253 252 253 258 272 281 286 279 284 292 283 243 269 264 220 216 214 222 230 233 234 237 237 236 234 232
198 207 209 210 214 215 214 221 234 228 229 232 234 235 241 258 260 259 253 252 253 259 268 279 287 286 279 282 288 284 272 263 222 194 212 229 235 235 236 235 236 235 233
207 207 211 218 221 221 221 225 231 231 232 234 235 240 245 243 247 259 259 257 256 257 261 269 273 267 268 261 267 271 272 269 270 181 198 220 228 229 231 233 233 233 232
213 213 214 221 228 230 230 231 234 234 235 238 240 243 246 246 248 249 252 253 254 249 252 257 261 265 257 255 265 261 266 268 268 210 197 208 218 224 226 227 228 229 229
215 216 219 227 234 237 233 231 233 235 239 243 246 248 249 248 250 250 247 245 249 253 248 251 255 252 248 248 252 260 264 257 268 270 247 232 218 216 221 222 224 229 229
220 221 225 228 232 235 232 231 231 234 240 245 246 248 251 255 266 263 265 259 253 251 252 253 255 257 256 258 259 266 268 271 264 258 266 254 234 234 219 215 219 227 230
227 225 227 230 232 232 145 193 244 245 245 246 247 249 247 234 230 229 241 254 263 257 259 262 261 260 262 263 265 265 269 273 271 248 268 267 259 259 249 236 189 205 225
227 229 230 230 229 209 166 201 237 251 250 250 248 248 249 244 235 239 225 224 235 242 248 259 262 264 262 260 262 260 263 274 280 284 272 271 260 259 255 207 176 198 220
226 231 233 229 230 214 186 204 230 242 249 248 246 246 250 252 247 247 249 247 245 233 230 235 249 256 258 258 252 257 263 262 259 249 250 270 273 271 267 238 179 197 213
229 230 232 232 237 227 199 205 226 243 242 246 246 245 245 247 236 236 248 251 254 252 234 230 245 255 266 260 259 257 252 256 266 256 224 262 276 276 264 248 196 196 211
238 235 231 234 236 235 207 207 224 244 245 250 246 243 241 242 227 222 240 248 253 256 253 229 227 231 234 229 222 236 252 260 270 272 233 255 276 277 269 244 237 212 217